TimeCST,TemperatureF,Dew PointF,Humidity,Sea Level PressureIn,VisibilityMPH,Wind Direction,Wind SpeedMPH,Gust SpeedMPH,PrecipitationIn,Events,Conditions,WindDirDegrees,DateUTC
6:00 AM,77,63,52,29.86,12,North,4.6,,,,Overcast,10,2014-04-23 12:00:00
6:00 AM,77.0,62.6,61,29.83,-9999.0,North,4.6,-,N/A,,Clear,10,2014-04-23 12:00:00
7:00 AM,80.6,64.4,58,29.85,-9999.0,NNW,3.5,-,N/A,,Clear,330,2014-04-23 13:00:00
8:00 AM,84.2,64.4,51,29.88,-9999.0,South,2.3,-,N/A,,Clear,190,2014-04-23 14:00:00
9:00 AM,89,63,32,29.89,12,NNE,6.9,,,,Overcast,30,2014-04-23 15:00:00
9:00 AM,89.6,62.6,40,29.86,-9999.0,NNE,6.9,-,N/A,,Clear,30,2014-04-23 15:00:00
10:00 AM,91.4,59.0,34,29.85,-9999.0,East,12.7,-,N/A,,Clear,80,2014-04-23 16:00:00
11:00 AM,93.2,59.0,32,29.83,-9999.0,East,12.7,-,N/A,,Clear,100,2014-04-23 17:00:00
12:00 PM,95,56,18,29.83,12,East,15.0,,,,Overcast,90,2014-04-23 18:00:00
12:00 PM,95.0,55.4,26,29.81,-9999.0,East,15.0,-,N/A,,Clear,90,2014-04-23 18:00:00
1:00 PM,98.6,57.2,25,29.76,-9999.0,East,16.1,-,N/A,,Clear,90,2014-04-23 19:00:00
2:00 PM,96.8,60.8,30,29.74,6.2,East,15.0,-,N/A,,Mostly Cloudy,90,2014-04-23 20:00:00
3:00 PM,96,64,25,29.73,12,East,13.8,,,,Overcast,80,2014-04-23 21:00:00
3:00 PM,95.0,64.4,36,29.73,6.2,East,13.8,-,N/A,,Mostly Cloudy,80,2014-04-23 21:00:00
4:00 PM,93.2,64.4,38,29.73,6.2,ENE,16.1,-,N/A,,Mostly Cloudy,70,2014-04-23 22:00:00
5:00 PM,91.4,62.6,38,29.74,6.2,ENE,15.0,-,N/A,,Mostly Cloudy,70,2014-04-23 23:00:00
6:00 PM,88,64,34,29.79,12,East,12.7,,,,Overcast,80,2014-04-24 00:00:00
6:00 PM,87.8,64.4,46,29.77,6.2,East,12.7,-,N/A,,Mostly Cloudy,80,2014-04-24 00:00:00
7:00 PM,86.0,62.6,45,29.80,6.2,East,8.1,-,N/A,,Mostly Cloudy,100,2014-04-24 01:00:00
8:00 PM,84.2,64.4,51,29.81,6.2,East,6.9,-,N/A,,Mostly Cloudy,100,2014-04-24 02:00:00